Location: *
(46.1200°N, 11.2700°E)
Time: 23:57:13
(UTC+00:00)

Okean 1-7 - Pass Details

Date: 02 March 2021
Orbit: 589 x 619 km, 82.5° (Epoch: 18 April)

Event Time Altitude Azimuth Distance (km) Brightness Sun altitude
Rises 17:44:57 0° 3° (N) 2,899 6.5 -8.1°
Reaches altitude 10° 17:47:42 10° 21° (NNE) 1,984 5.4 -8.6°
Maximum altitude 17:50:59 20° 69° (ENE) 1,415 4.3 -9.1°
Drops below altitude 10° 17:54:14 10° 118° (ESE) 1,960 5.1 -9.7°
Enters shadow 17:54:29 - 120° (ESE) 2,032 5.2 -9.7°
